WZ9ZZZ-1 Weather Reports


time (UTC)temp
C
wind
direction
speed
KPH
gust
KPH
rain 1hr
cm
rain 24hr
cm
rain mn
cm
humidity
%
barometer
mb
20260510043921 24 108 0.0 0.0 0.00 0.30 0.30 96 1015.5
20260510043417 24 148 3.2 3.2 0.00 0.30 0.30 96 1015.9
20260510042915 23 80 3.2 3.2 0.00 0.30 0.30 96 1015.8
20260510042410 24 83 3.2 3.2 0.00 0.30 0.30 96 1015.9
20260510041906 24 103 3.2 3.2 0.00 0.30 0.30 96 1016.1
20260510041403 24 105 1.6 3.2 0.00 0.30 0.30 96 1016.1
20260510040901 24 184 4.8 8.0 0.00 0.30 0.30 96 1016.2
20260510040358 24 175 4.8 8.0 0.00 0.30 0.30 96 1016.1
20260510035854 24 127 3.2 3.2 0.00 0.30 0.30 96 1016.0
20260510035349 24 61 3.2 8.0 0.00 0.30 0.30 96 1015.8
20260510034845 24 88 4.8 8.0 0.00 0.30 0.30 96 1016.1
20260510034343 24 125 0.0 0.0 0.00 0.30 0.30 96 1015.9
20260510033839 24 124 0.0 0.0 0.00 0.30 0.30 96 1015.3
20260510033336 24 114 0.0 0.0 0.00 0.30 0.30 96 1015.2
20260510032832 24 118 0.0 0.0 0.00 0.30 0.30 96 1015.4
20260510032330 24 124 0.0 0.0 0.00 0.30 0.30 96 1015.4
20260510031825 24 126 0.0 0.0 0.00 0.30 0.30 96 1015.4
20260510031321 24 113 0.0 0.0 0.00 0.30 0.30 95 1015.5
20260510030821 24 85 0.0 1.6 0.13 0.30 0.30 95 1015.7
20260510030317 25 98 8.0 9.7 0.30 0.30 0.30 95 1015.9
20260510025815 25 125 3.2 3.2 1.07 0.30 0.30 95 1015.8
20260510025312 25 111 3.2 4.8 1.50 0.25 0.25 95 1015.5
20260510024809 25 115 4.8 4.8 0.61 0.10 0.10 94 1015.4
20260510024306 25 156 3.2 3.2 0.13 0.03 0.03 93 1015.4
20260510023802 25 150 4.8 4.8 0.00 0.00 0.00 93 1015.4
20260510023259 25 122 6.4 8.0 0.00 0.00 0.00 93 1015.2
20260510022755 25 116 1.6 1.6 0.00 0.00 0.00 93 1015.5
20260510022250 25 115 1.6 1.6 0.00 0.00 0.00 93 1015.2
20260510021748 25 104 1.6 1.6 0.00 0.00 0.00 92 1015.0
20260510021247 25 116 3.2 3.2 0.00 0.00 0.00 92 1014.7
20260510020742 25 116 3.2 4.8 0.00 0.00 0.00 92 1014.6
20260510020237 25 127 1.6 1.6 0.00 0.00 0.00 92 1014.5
20260510015733 25 118 0.0 0.0 0.00 0.00 0.00 91 1014.3
20260510015230 25 126 3.2 4.8 0.00 0.00 0.00 91 1014.1
20260510014724 26 124 3.2 3.2 0.00 0.00 0.00 90 1014.0
20260510014222 26 121 1.6 3.2 0.00 0.00 0.00 89 1013.8
20260510013717 26 122 1.6 1.6 0.00 0.00 0.00 88 1014.1
20260510013208 26 101 3.2 3.2 0.00 0.00 0.00 87 1013.7
20260510012708 26 133 4.8 4.8 0.00 0.00 0.00 85 1013.7
20260510012203 26 143 1.6 1.6 0.00 0.00 0.00 85 1013.5
20260510011658 26 110 0.0 1.6 0.00 0.00 0.00 85 1013.0
20260510011154 26 126 1.6 1.6 0.00 0.00 0.00 84 1013.1
20260510010650 26 117 0.0 1.6 0.00 0.00 0.00 84 1013.0
20260510010148 26 123 1.6 1.6 0.00 0.00 0.00 84 1012.6
20260510005643 26 148 3.2 4.8 0.00 0.00 0.00 83 1013.0
20260510005140 27 116 3.2 3.2 0.00 0.00 0.00 82 1012.7
20260510004639 27 132 1.6 1.6 0.00 0.00 0.00 82 1012.7
20260510004137 27 137 1.6 1.6 0.00 0.00 0.00 82 1012.5
20260510003633 27 137 0.0 0.0 0.00 0.00 0.00 81 1012.3
20260510003129 27 173 1.6 3.2 0.00 0.00 0.00 81 1012.9
20260510002629 27 143 0.0 1.6 0.00 0.00 0.00 81 1012.5
20260510002127 27 120 0.0 1.6 0.00 0.00 0.00 81 1012.6
20260510001623 28 114 0.0 1.6 0.00 0.00 0.00 81 1012.5
20260510001122 28 161 1.6 1.6 0.00 0.00 0.00 79 1012.7
20260510000622 28 121 0.0 0.0 0.00 0.00 0.00 77 1012.1
20260510000120 28 119 0.0 1.6 0.00 0.00 0.00 77 1012.4
20260509235616 28 114 0.0 1.6 0.00 0.00 0.00 75 1012.0
20260509235113 28 120 3.2 3.2 0.00 0.00 0.00 75 1012.1
20260509234608 28 118 0.0 0.0 0.00 0.00 0.00 75 1012.2
20260509234107 28 104 1.6 1.6 0.00 0.00 0.00 74 1012.5
20260509233604 29 118 1.6 1.6 0.00 0.00 0.00 73 1012.2
20260509233101 29 141 1.6 1.6 0.00 0.00 0.00 73 1012.2
20260509232557 30 129 3.2 3.2 0.00 0.00 0.00 73 1012.2
20260509232054 30 128 1.6 1.6 0.00 0.00 0.00 73 1012.3
20260509231551 30 110 0.0 1.6 0.00 0.00 0.00 73 1012.6
20260509231049 30 126 3.2 3.2 0.00 0.00 0.00 73 1012.4
20260509230545 30 129 0.0 0.0 0.00 0.00 0.00 73 1012.2
20260509230043 30 88 3.2 3.2 0.00 0.00 0.00 71 1012.0
20260509225538 30 137 0.0 1.6 0.00 0.00 0.00 71 1012.2
20260509225033 30 103 1.6 3.2 0.00 0.00 0.00 71 1012.2
20260509224529 30 102 0.0 0.0 0.00 0.00 0.00 71 1012.0
20260509224026 30 110 0.0 0.0 0.00 0.00 0.00 72 1012.0
20260509223523 31 112 1.6 1.6 0.00 0.00 0.00 71 1011.9
20260509223021 30 108 0.0 0.0 0.00 0.00 0.00 72 1012.0
20260509222517 31 231 0.0 1.6 0.00 0.00 0.00 71 1012.0
20260509222012 31 121 0.0 0.0 0.00 0.00 0.00 71 1011.9
20260509221509 30 121 0.0 0.0 0.00 0.00 0.00 71 1012.1
20260509221004 30 121 1.6 3.2 0.00 0.00 0.00 72 1011.9
20260509220501 31 122 1.6 1.6 0.00 0.00 0.00 72 1011.8
20260509215956 31 122 1.6 3.2 0.00 0.00 0.00 72 1011.9
20260509215452 31 121 1.6 1.6 0.00 0.00 0.00 72 1011.9
20260509214950 31 101 0.0 0.0 0.00 0.00 0.00 72 1011.7
20260509214447 30 134 3.2 3.2 0.00 0.00 0.00 74 1011.7
20260509213943 31 106 1.6 1.6 0.00 0.00 0.00 73 1011.7
20260509213439 31 118 0.0 0.0 0.00 0.00 0.00 74 1011.6
20260509212937 31 115 0.0 0.0 0.00 0.00 0.00 73 1011.7
20260509212434 31 127 0.0 0.0 0.00 0.00 0.00 72 1011.7
20260509211930 31 140 1.6 1.6 0.00 0.00 0.00 73 1011.7
20260509211426 31 109 0.0 0.0 0.00 0.00 0.00 74 1011.9
20260509210923 31 117 0.0 1.6 0.00 0.00 0.00 75 1011.9
20260509210420 31 96 1.6 3.2 0.00 0.00 0.00 73 1012.1
20260509205916 31 132 1.6 3.2 0.00 0.00 0.00 72 1012.0
20260509205415 31 125 0.0 0.0 0.00 0.00 0.00 73 1012.1
20260509204912 31 99 0.0 1.6 0.00 0.00 0.00 72 1011.7
20260509204408 31 102 4.8 4.8 0.00 0.00 0.00 72 1012.0
20260509203904 32 122 3.2 4.8 0.00 0.00 0.00 71 1011.8
20260509203400 31 80 4.8 4.8 0.00 0.00 0.00 72 1011.9
20260509202858 31 104 0.0 0.0 0.00 0.00 0.00 74 1012.1
20260509202354 31 112 0.0 1.6 0.00 0.00 0.00 75 1011.9
20260509201849 31 116 0.0 1.6 0.00 0.00 0.00 76 1012.1
20260509201345 31 121 4.8 8.0 0.00 0.00 0.00 74 1012.2
20260509200842 31 99 0.0 1.6 0.00 0.00 0.00 73 1012.3
20260509200336 30 132 0.0 0.0 0.00 0.00 0.00 75 1012.4
20260509195834 30 106 1.6 3.2 0.00 0.00 0.00 77 1012.5
20260509195334 30 99 3.2 3.2 0.00 0.00 0.00 76 1012.3
20260509194833 31 86 1.6 1.6 0.00 0.00 0.00 74 1012.4
20260509194330 30 117 1.6 1.6 0.00 0.00 0.00 76 1012.7
20260509193826 30 83 1.6 1.6 0.00 0.00 0.00 77 1012.4
20260509193321 30 105 4.8 8.0 0.00 0.00 0.00 77 1012.6
20260509192817 30 115 0.0 1.6 0.00 0.00 0.00 78 1012.6
20260509192313 30 118 1.6 1.6 0.00 0.00 0.00 77 1012.7
20260509191808 30 118 1.6 1.6 0.00 0.00 0.00 77 1012.6
20260509191305 30 123 0.0 0.0 0.00 0.00 0.00 78 1012.7
20260509190801 30 138 1.6 1.6 0.00 0.00 0.00 76 1012.7
20260509190258 31 103 4.8 4.8 0.00 0.00 0.00 75 1012.6
20260509185755 32 133 3.2 3.2 0.00 0.00 0.00 72 1012.7
20260509185251 32 267 1.6 1.6 0.00 0.00 0.00 69 1012.7
20260509184749 32 122 0.0 1.6 0.00 0.00 0.00 69 1012.7
20260509184246 32 82 0.0 0.0 0.00 0.00 0.00 69 1012.6
20260509183743 30 265 1.6 1.6 0.00 0.00 0.00 70 1013.0
20260509183238 31 184 3.2 3.2 0.00 0.00 0.00 70 1012.9
20260509182733 30 262 1.6 3.2 0.00 0.00 0.00 73 1013.2
20260509182231 30 68 3.2 3.2 0.00 0.00 0.00 73 1013.2
20260509181728 29 212 1.6 3.2 0.00 0.00 0.00 75 1013.1
20260509181226 29 218 4.8 4.8 0.00 0.00 0.00 75 1013.4
20260509180723 29 174 3.2 4.8 0.00 0.00 0.00 76 1013.4
20260509180219 29 181 0.0 1.6 0.00 0.00 0.00 77 1013.5
20260509175716 28 133 0.0 0.0 0.00 0.00 0.00 78 1014.0
20260509175212 28 224 3.2 4.8 0.00 0.00 0.00 80 1013.9
20260509174708 27 37 4.8 4.8 0.00 0.00 0.00 83 1013.9
20260509174203 27 129 0.0 0.0 0.00 0.00 0.00 84 1014.0
20260509173700 27 113 1.6 1.6 0.00 0.00 0.00 85 1014.1
20260509173155 27 115 0.0 0.0 0.00 0.00 0.00 85 1014.4
20260509172651 27 114 0.0 0.0 0.00 0.00 0.00 86 1014.1
20260509172148 27 99 1.6 1.6 0.00 0.00 0.00 85 1014.0
20260509171643 27 104 0.0 0.0 0.00 0.00 0.00 85 1014.2
20260509171140 27 99 0.0 1.6 0.00 0.00 0.00 86 1014.2
20260509170637 27 133 0.0 0.0 0.00 0.00 0.00 85 1014.2
20260509170133 27 133 0.0 0.0 0.00 0.00 0.00 86 1014.2
20260509165631 27 133 0.0 0.0 0.00 0.00 0.00 86 1014.1
20260509165127 27 128 0.0 1.6 0.00 0.00 0.00 86 1014.1
20260509164623 27 129 0.0 0.0 0.00 0.00 0.00 85 1014.5
20260509164119 27 129 0.0 1.6 0.00 0.00 0.00 85 1014.4
20260509163617 27 130 0.0 0.0 0.00 0.00 0.00 84 1014.4
20260509163112 27 152 1.6 1.6 0.00 0.00 0.00 84 1014.0
20260509162610 27 96 0.0 0.0 0.00 0.00 0.00 85 1014.1
20260509162106 27 96 0.0 0.0 0.00 0.00 0.00 86 1014.0
20260509161603 27 96 0.0 0.0 0.00 0.00 0.00 88 1014.0
20260509161102 26 95 0.0 0.0 0.00 0.00 0.00 89 1013.9
20260509160559 26 101 0.0 0.0 0.00 0.00 0.00 90 1013.8
20260509160054 26 108 0.0 0.0 0.00 0.00 0.00 92 1014.1
20260509155551 26 103 1.6 1.6 0.00 0.00 0.00 93 1014.3
20260509155047 26 102 0.0 0.0 0.00 0.00 0.00 93 1014.1
20260509154543 25 99 0.0 0.0 0.00 0.00 0.00 94 1013.9
20260509154041 25 107 0.0 0.0 0.00 0.00 0.00 94 1013.8
20260509153538 25 112 0.0 0.0 0.00 0.00 0.00 95 1013.4
20260509153034 25 105 1.6 1.6 0.00 0.00 0.00 95 1013.9
20260509152530 25 124 0.0 0.0 0.00 0.00 0.00 96 1013.8
20260509152027 25 125 0.0 0.0 0.00 0.00 0.00 96 1013.7
20260509151523 25 112 0.0 0.0 0.00 0.00 0.00 96 1013.4
20260509151022 25 107 1.6 1.6 0.00 0.00 0.00 96 1013.3
20260509150519 24 123 0.0 0.0 0.00 0.00 0.00 96 1013.9
20260509150017 24 134 0.0 0.0 0.00 0.00 0.00 97 1013.9
20260509145512 24 124 0.0 0.0 0.00 0.00 0.00 97 1013.6
20260509145008 24 121 0.0 0.0 0.00 0.00 0.00 97 1013.7
20260509144505 24 121 0.0 0.0 0.00 0.00 0.00 97 1013.7
20260509144002 24 131 0.0 1.6 0.00 0.00 0.00 97 1014.0
20260509143459 24 140 0.0 0.0 0.00 0.00 0.00 97 1014.2
20260509142956 24 165 0.0 0.0 0.00 0.00 0.00 97 1014.1
20260509142452 24 130 0.0 0.0 0.00 0.00 0.00 98 1014.1
20260509141948 24 247 4.8 8.0 0.00 0.00 0.00 97 1014.2
20260509141444 24 190 1.6 3.2 0.00 0.00 0.00 98 1014.0
20260509140941 24 126 0.0 0.0 0.00 0.00 0.00 98 1013.8
20260509140437 24 111 0.0 0.0 0.00 0.00 0.00 98 1013.9
20260509135936 24 109 0.0 0.0 0.00 0.00 0.00 98 1013.9
20260509135433 24 101 0.0 0.0 0.00 0.00 0.00 98 1013.8
20260509134930 24 104 0.0 0.0 0.00 0.00 0.00 98 1013.3
20260509134428 24 107 0.0 0.0 0.00 0.00 0.00 98 1013.6
20260509133925 24 110 0.0 0.0 0.00 0.00 0.00 98 1013.5
20260509133421 24 105 0.0 0.0 0.00 0.00 0.00 98 1014.0
20260509132920 23 86 0.0 0.0 0.00 0.00 0.00 98 1013.9
20260509132418 24 103 0.0 0.0 0.00 0.00 0.00 98 1014.5
20260509131914 23 91 0.0 0.0 0.00 0.00 0.00 98 1014.1
20260509131412 23 86 0.0 0.0 0.00 0.00 0.00 98 1013.9
20260509130908 23 104 0.0 0.0 0.00 0.00 0.00 98 1013.9
20260509130403 23 109 0.0 0.0 0.00 0.00 0.00 98 1013.6
20260509125901 23 187 0.0 0.0 0.00 0.00 0.00 98 1013.8
20260509125357 23 114 0.0 0.0 0.00 0.00 0.00 98 1013.6
20260509124853 23 161 0.0 0.0 0.00 0.00 0.00 98 1013.7
20260509124350 23 120 0.0 0.0 0.00 0.00 0.00 98 1013.9
20260509123848 23 137 0.0 0.0 0.00 0.00 0.00 98 1013.6
20260509123345 23 101 0.0 0.0 0.00 0.00 0.00 98 1013.9
20260509122841 23 111 0.0 0.0 0.00 0.00 0.00 98 1013.8
20260509122338 23 120 0.0 0.0 0.00 0.00 0.00 98 1013.6
20260509121835 23 120 0.0 0.0 0.00 0.00 0.00 98 1013.6
20260509121332 23 120 0.0 0.0 0.00 0.00 0.00 98 1013.5
20260509120830 23 113 0.0 0.0 0.00 0.00 0.00 98 1013.6
20260509120327 23 108 0.0 0.0 0.00 0.00 0.00 98 1013.9
20260509115826 23 107 0.0 0.0 0.00 0.00 0.00 98 1013.7
20260509115322 23 105 0.0 0.0 0.00 0.00 0.00 98 1013.8
20260509114820 23 105 0.0 0.0 0.00 0.00 0.00 98 1014.0
20260509114319 23 106 0.0 0.0 0.00 0.00 0.00 98 1013.9
20260509113818 23 105 0.0 0.0 0.00 0.00 0.00 98 1013.8
20260509113314 23 107 0.0 0.0 0.00 0.00 0.00 98 1013.7
20260509112811 23 105 0.0 0.0 0.00 0.00 0.00 98 1013.9
20260509112308 23 105 0.0 0.0 0.00 0.00 0.00 98 1013.8
20260509111805 23 105 0.0 0.0 0.00 0.00 0.00 98 1013.8
20260509111302 23 105 0.0 0.0 0.00 0.00 0.00 98 1013.6
20260509110759 23 105 0.0 0.0 0.00 0.00 0.00 98 1013.5
20260509110255 23 106 0.0 0.0 0.00 0.00 0.00 98 1013.4
20260509105754 22 106 0.0 0.0 0.00 0.00 0.00 98 1013.1
20260509105251 22 106 0.0 0.0 0.00 0.00 0.00 98 1013.1
20260509104748 22 106 0.0 0.0 0.00 0.00 0.00 98 1013.0
20260509104245 22 106 0.0 0.0 0.00 0.00 0.00 98 1012.9
20260509103743 22 106 0.0 0.0 0.00 0.00 0.00 98 1013.2
20260509103240 22 105 0.0 0.0 0.00 0.00 0.00 98 1013.2
20260509102738 22 105 0.0 0.0 0.00 0.00 0.00 98 1013.3
20260509102235 22 108 0.0 0.0 0.00 0.00 0.00 98 1013.0
20260509101731 22 107 0.0 0.0 0.00 0.00 0.00 98 1013.0
20260509101227 22 108 0.0 0.0 0.00 0.00 0.00 97 1013.3
20260509100725 23 108 0.0 0.0 0.00 0.00 0.00 98 1013.1
20260509100222 23 108 0.0 0.0 0.00 0.00 0.00 98 1013.2
20260509095719 23 108 0.0 0.0 0.00 0.00 0.00 98 1013.2
20260509095216 23 108 0.0 0.0 0.00 0.00 0.00 98 1013.0
20260509094713 23 109 0.0 0.0 0.00 0.00 0.00 98 1013.0
20260509094210 23 109 0.0 0.0 0.00 0.00 0.00 98 1013.0
20260509093708 23 106 0.0 0.0 0.00 0.00 0.00 97 1012.9
20260509093205 23 105 0.0 0.0 0.00 0.00 0.00 97 1013.0
20260509092703 23 106 0.0 0.0 0.00 0.00 0.00 97 1012.6
20260509092201 23 102 0.0 0.0 0.00 0.00 0.00 97 1012.7
20260509091659 22 94 0.0 0.0 0.00 0.00 0.00 97 1012.5
20260509091154 23 105 0.0 0.0 0.00 0.00 0.00 97 1012.6
20260509090652 23 105 0.0 0.0 0.00 0.00 0.00 97 1012.5
20260509090149 22 109 0.0 0.0 0.00 0.00 0.00 97 1012.7
20260509085647 22 99 0.0 0.0 0.00 0.00 0.00 97 1012.6
20260509085143 22 106 0.0 0.0 0.00 0.00 0.00 97 1012.7
20260509084640 22 106 0.0 0.0 0.00 0.00 0.00 97 1012.5
20260509084137 22 106 0.0 0.0 0.00 0.00 0.00 97 1012.5
20260509083635 22 105 0.0 0.0 0.00 0.00 0.00 97 1013.0
20260509083131 23 103 0.0 0.0 0.00 0.00 0.00 97 1012.9
20260509082628 23 106 0.0 0.0 0.00 0.00 0.00 97 1012.6
20260509082125 23 106 0.0 0.0 0.00 0.00 0.00 97 1012.7
20260509081622 22 106 0.0 0.0 0.00 0.00 0.00 97 1012.7
20260509081119 22 106 0.0 0.0 0.00 0.00 0.00 97 1013.1
20260509080617 22 105 0.0 0.0 0.00 0.00 0.00 97 1013.0
20260509080115 22 106 0.0 0.0 0.00 0.00 0.00 97 1013.1
20260509075613 22 106 0.0 0.0 0.00 0.00 0.00 97 1013.2
20260509075110 22 106 0.0 0.0 0.00 0.00 0.00 97 1013.4
20260509074607 22 106 0.0 0.0 0.00 0.00 0.00 97 1013.3
20260509074103 22 106 0.0 0.0 0.00 0.00 0.00 97 1013.3
20260509073600 22 106 0.0 0.0 0.00 0.00 0.00 97 1013.3
20260509073056 22 106 0.0 0.0 0.00 0.00 0.00 97 1013.4
20260509072553 22 112 0.0 0.0 0.00 0.00 0.00 97 1013.5
20260509072050 22 106 0.0 0.0 0.00 0.00 0.00 97 1013.3
20260509071547 22 106 0.0 0.0 0.00 0.00 0.00 97 1013.5
20260509071044 22 106 0.0 0.0 0.00 0.00 0.00 97 1013.3
20260509070541 22 106 0.0 0.0 0.00 0.00 0.00 97 1013.6
20260509070038 23 106 0.0 0.0 0.00 0.00 0.00 97 1013.4
20260509065533 23 106 0.0 0.0 0.00 0.00 0.00 97 1013.3
20260509065030 23 103 0.0 0.0 0.00 0.00 0.00 97 1013.3
20260509064527 23 105 0.0 0.0 0.00 0.00 0.00 97 1013.1
20260509064025 23 106 0.0 0.0 0.00 0.00 0.00 97 1013.3
20260509063520 23 106 0.0 0.0 0.00 0.00 0.00 97 1013.5
20260509063018 23 106 0.0 0.0 0.00 0.00 0.00 97 1013.6
20260509062515 23 106 0.0 0.0 0.00 0.00 0.00 97 1013.8
20260509062012 23 104 0.0 0.0 0.00 0.00 0.00 97 1013.9
20260509061509 23 106 0.0 0.0 0.00 0.00 0.00 97 1013.7
20260509061007 23 106 0.0 0.0 0.00 0.00 0.00 97 1013.4
20260509060504 23 106 0.0 0.0 0.00 0.00 0.00 97 1013.4
20260509055959 23 106 0.0 0.0 0.00 0.00 0.00 97 1013.5
20260509055455 23 105 0.0 0.0 0.00 0.00 0.00 97 1013.7
20260509054951 23 100 0.0 0.0 0.00 0.00 0.00 97 1013.5
20260509054448 23 108 0.0 0.0 0.00 0.00 0.00 96 1013.5
20260509053946 23 104 0.0 0.0 0.00 0.00 0.00 96 1013.4
20260509053444 23 109 0.0 0.0 0.00 0.00 0.00 96 1013.7
20260509052941 23 109 0.0 0.0 0.00 0.00 0.00 96 1013.9
20260509052439 23 109 0.0 0.0 0.00 0.00 0.00 96 1013.6
20260509051936 23 111 0.0 0.0 0.00 0.00 0.00 96 1013.8
20260509051434 23 112 0.0 0.0 0.00 0.00 0.00 96 1013.7
20260509050931 23 120 0.0 0.0 0.00 0.00 0.00 96 1013.6
20260509050427 23 120 0.0 0.0 0.00 0.00 0.00 96 1013.6
20260509045924 23 120 0.0 0.0 0.00 0.05 0.05 96 1014.0
20260509045421 23 120 0.0 0.0 0.00 0.05 0.05 96 1014.1
20260509044918 23 120 0.0 0.0 0.00 0.05 0.05 96 1013.9
20260509044416 23 120 0.0 0.0 0.00 0.05 0.05 96 1014.2